Driggs, ID

1:33 AM MDT on September 24, 2017 (GMT -0600)
Driggs

Weather History for KDIJ - September, 2013

Change the Weather History Date:

Saturday, September 7, 2013

  Actual Average (KJAC) Record (KJAC)
Temperature  
Mean Temperature 63 °F -  
Max Temperature 74 °F 75 °F 84 °F (1979)
Min Temperature 52 °F 35 °F 23 °F (2000)
Degree Days  
Heating Degree Days 2    
Growing Degree Days 13 (Base 50)    
Moisture  
Dew Point 50 °F    
Average Humidity 68    
Maximum Humidity 89    
Minimum Humidity 33    
Precipitation  
Precipitation 0.00 in - - ()
Sea Level Pressure  
Sea Level Pressure 30.03 in    
Wind  
Wind Speed 5 mph (SSE)    
Max Wind Speed 13 mph    
Max Gust Speed -    
Visibility 9 miles    
Events      
Averages and records for this station are not official NWS values.
T = Trace of Precipitation, MM = Missing Value Source: NWS Daily Summary

Daily Weather History Graph

Daily Weather History Graph

Search for Another Location

Airport or City:

Trip Planner

Search our weather history database for the weather conditions in past years. The results will help you decide how hot, cold, wet, or windy it might be!

Date:

Astronomy

Sep. 07, 2013 Rise Set
Actual Time 6:55 AM MDT 7:48 PM MDT
Civil Twilight 6:25 AM MDT 8:17 PM MDT
Nautical Twilight 5:51 AM MDT 8:52 PM MDT
Astronomical Twilight 5:14 AM MDT 9:28 PM MDT
Moon 9:19 AM MDT (9/7) 8:42 PM MDT (9/7)
Length of Visible Light 13h 51m
Length of Day
12h 53m
Waxing Crescent, 5% of the Moon is Illuminated
Sep 7
Waxing Crescent
Sep 12
First Quarter
Sep 19
Full
Sep 26
Last Quarter
Oct 4
New

Hourly Weather History & Observations

Time (MDT) Temp. Dew Point Humidity Pressure Visibility Wind Dir Wind Speed Gust Speed Precip Events Conditions
12:56 AM 57.9 °F 54.0 °F 87% 29.99 in 10.0 mi SSE 6.9 mph - N/A   Mostly Cloudy
1:56 AM 56.8 °F 52.9 °F 87% 29.99 in 10.0 mi ENE 3.5 mph - N/A   Clear
2:56 AM 54.0 °F 50.0 °F 86% 30.02 in 10.0 mi ENE 4.6 mph - N/A   Clear
3:56 AM 52.0 °F 48.9 °F 89% 30.05 in 10.0 mi Calm Calm - N/A   Clear
4:56 AM 52.0 °F 47.8 °F 86% 30.07 in 10.0 mi East 5.8 mph - N/A   Clear
5:56 AM 52.9 °F 48.9 °F 86% 30.05 in 10.0 mi NE 5.8 mph - N/A   Clear
6:56 AM 52.9 °F 48.9 °F 86% 30.07 in 10.0 mi Calm Calm - N/A   Clear
7:56 AM 54.0 °F 48.9 °F 83% 30.08 in 10.0 mi East 8.1 mph - N/A   Partly Cloudy
8:56 AM 63.0 °F 50.0 °F 63% 30.05 in 10.0 mi West 3.5 mph - N/A   Clear
9:56 AM 63.0 °F 50.9 °F 65% 30.06 in 10.0 mi Calm Calm - N/A   Partly Cloudy
10:56 AM 66.9 °F 50.9 °F 56% 30.05 in 8.0 mi Calm Calm - N/A   Partly Cloudy
11:56 AM 70.9 °F 48.9 °F 46% 30.04 in 8.0 mi Calm Calm - N/A   Partly Cloudy
12:56 PM 72.9 °F 50.9 °F 46% 30.02 in 9.0 mi SW 9.2 mph - N/A   Clear
1:56 PM 74.8 °F 48.9 °F 40% 30.01 in 9.0 mi SSW 8.1 mph - N/A   Clear
2:56 PM 73.9 °F 50.9 °F 44% 30.01 in 8.0 mi SSW 8.1 mph - N/A   Partly Cloudy
3:56 PM 72.9 °F 52.9 °F 49% 30.00 in 9.0 mi SSW 11.5 mph - N/A   Partly Cloudy
4:56 PM 74.8 °F 43.9 °F 33% 29.99 in 9.0 mi South 12.7 mph - N/A   Clear
5:56 PM 72.9 °F 43.9 °F 35% 29.98 in 9.0 mi SSE 5.8 mph - N/A   Partly Cloudy
6:56 PM 65.8 °F 52.0 °F 61% 30.01 in 9.0 mi North 5.8 mph - N/A   Clear
7:56 PM 61.0 °F 54.0 °F 78% 30.01 in 8.0 mi WSW 9.2 mph - N/A   Clear
8:56 PM 55.9 °F 52.9 °F 89% 30.02 in 9.0 mi SE 5.8 mph - N/A   Clear
9:56 PM 55.9 °F 50.9 °F 83% 30.04 in 10.0 mi ESE 5.8 mph - N/A   Clear
10:56 PM 54.9 °F 48.9 °F 80% 30.02 in 9.0 mi East 5.8 mph - N/A   Clear
11:56 PM 54.0 °F 47.8 °F 80% 29.98 in 10.0 mi Calm Calm - N/A   Clear